Zurück zum Katalog

OPS 9437

DSCS 2-7

AktivMilitärGEO
NORAD 10000·PAYLOAD·🇺🇸 United States

Gestartet May 12, 1977 von Cape Canaveral Space Force Station

Loading…

TLE

AktuellSource: Space-Track

Epoche: Sep 14, 2026, 12:26 UTC

1 10000U 77034A   26257.51813107 -.00000106  00000-0  00000-0 0  9998
2 10000   7.8478 291.6291 0020504   1.2080 358.6875  0.96673597166400

Verfolge OPS 9437 in Echtzeit mit AllMySat

Download on the App Store